This demonstration page uses our WeatherBlox Daily Observations layout. Learn more.

Left ArrowRight Arrow

34.02893, -84.19858

Hourly Observations for October 4, 2022

Temp ( °F °C ) Dew Point ( °F °C ) Humidity (%) Winds ( mph kmh ) Pressure ( in mb ) Visibility ( mi km ) Precip ( " mm )
12:53 am 00:53 Clear 55 12.8 52 11.1 89 89 Calm 30.11 1020 10 16 0.00 0.00
1:53 am 01:53 Clear 58 14.4 53 11.7 84 84 Calm 30.09 1019 10 16 0.00 0.00
2:53 am 02:53 Mostly Cloudy 55 12.8 53 11.7 93 93 Calm 30.10 1019 10 16 0.00 0.00
3:53 am 03:53 Clear 52 11.1 52 11.1 100 100 Calm 30.09 1019 10 16 0.00 0.00
4:53 am 04:53 Cloudy 56 13.3 54 12.2 93 93 Calm 30.09 1019 10 16 0.00 0.00
5:53 am 05:53 Cloudy 57 13.9 54 12.2 89 89 Calm 30.10 1019 10 16 0.00 0.00
6:53 am 06:53 Mostly Cloudy 56 13.3 54 12.2 93 93 Calm 30.12 1020 10 16 0.00 0.00
7:53 am 07:53 Mostly Sunny 54 12.2 53 11.7 97 97 Calm 30.13 1020 10 16 0.00 0.00
8:53 am 08:53 Sunny 59 15 55 12.8 87 87 Calm 30.14 1021 10 16 0.00 0.00
9:53 am 09:53 Sunny 62 16.7 54 12.2 75 75 VRB 3 6 30.15 1021 10 16 0.00 0.00
10:34 am 10:34 Mostly Cloudy 62 16.7 53 11.7 72 72 VRB 3 6 30.16 1021 10 16 0.00 0.00
10:53 am 10:53 Cloudy 63 17.2 53 11.7 70 70 Calm 30.15 1021 10 16 0.00 0.00
11:53 am 11:53 Cloudy 64 17.8 53 11.7 67 67 Calm 30.14 1021 10 16 0.00 0.00
12:53 pm 12:53 Partly Cloudy 69 20.6 54 12.2 59 59 WSW 6 9 30.13 1020 10 16 0.00 0.00
1:53 pm 13:53 Mostly Cloudy 71 21.7 53 11.7 53 53 WNW 8 13 30.09 1019 10 16 0.00 0.00
2:53 pm 14:53 Mostly Sunny 73 22.8 52 11.1 48 48 W 9 15 30.06 1018 10 16 0.00 0.00
3:53 pm 15:53 Mostly Sunny 73 22.8 51 10.6 46 46 WNW 6 9 30.04 1017 10 16 0.00 0.00
4:53 pm 16:53 Mostly Sunny 73 22.8 50 10 44 44 W 9 15 30.03 1017 10 16 0.00 0.00
5:53 pm 17:53 Sunny 72 22.2 50 10 46 46 NW 10 17 30.02 1017 10 16 0.00 0.00
6:53 pm 18:53 Sunny 69 20.6 49 9.4 49 49 NNW 9 15 30.02 1017 10 16 0.00 0.00
7:53 pm 19:53 Clear 63 17.2 50 10 63 63 NNW 6 9 30.04 1017 10 16 0.00 0.00
8:53 pm 20:53 Clear 58 14.4 50 10 75 75 N 6 9 30.05 1018 10 16 0.00 0.00
9:53 pm 21:53 Clear 59 15 49 9.4 69 69 NNW 7 11 30.05 1018 10 16 0.00 0.00
10:53 pm 22:53 Clear 57 13.9 49 9.4 74 74 Calm 30.06 1018 10 16 0.00 0.00
11:53 pm 23:53 Clear 53 11.7 49 9.4 86 86 Calm 30.06 1018 10 16 0.00 0.00

Powered by AerisWeather